| time (UTC) | temp C | wind direction | speed KPH | gust KPH | rain 1hr cm | rain 24hr cm | rain mn cm | humidity % | barometer mb |
| 20260505065428 | 11 | 0 | 0.0 | 0.0 | 0.00 | 0.00 | 0.00 | 90 | 1012.0 |
| 20260505064928 | 11 | 174 | 1.6 | 3.2 | 0.00 | 0.00 | 0.00 | 90 | 1012.0 |
| 20260505064427 | 11 | 308 | 1.6 | 1.6 | 0.00 | 0.00 | 0.00 | 89 | 1012.0 |
| 20260505063926 | 11 | 20 | 0.0 | 1.6 | 0.00 | 0.00 | 0.00 | 89 | 1012.0 |
| 20260505063426 | 11 | 244 | 1.6 | 1.6 | 0.00 | 0.00 | 0.00 | 89 | 1011.0 |
| 20260505062928 | 11 | 229 | 1.6 | 3.2 | 0.00 | 0.00 | 0.00 | 89 | 1011.0 |
| 20260505062427 | 11 | 212 | 1.6 | 3.2 | 0.00 | 0.00 | 0.00 | 88 | 1011.0 |
| 20260505061929 | 11 | 183 | 1.6 | 4.8 | 0.00 | 0.00 | 0.00 | 88 | 1011.0 |
| 20260505061426 | 12 | 273 | 0.0 | 1.6 | 0.00 | 0.00 | 0.00 | 87 | 1011.0 |
| 20260505060929 | 12 | 194 | 1.6 | 6.4 | 0.00 | 0.00 | 0.00 | 87 | 1011.0 |
| 20260505060427 | 12 | 185 | 3.2 | 6.4 | 0.00 | 0.00 | 0.00 | 87 | 1011.0 |
| 20260505055928 | 12 | 190 | 0.0 | 1.6 | 0.00 | 0.00 | 0.00 | 87 | 1011.0 |
| 20260505055426 | 12 | 201 | 4.8 | 6.4 | 0.00 | 0.00 | 0.00 | 87 | 1011.0 |
| 20260505054926 | 12 | 188 | 3.2 | 9.7 | 0.00 | 0.00 | 0.00 | 86 | 1011.0 |
| 20260505054426 | 12 | 193 | 3.2 | 4.8 | 0.00 | 0.00 | 0.00 | 86 | 1011.0 |
| 20260505053927 | 12 | 217 | 3.2 | 3.2 | 0.00 | 0.00 | 0.00 | 85 | 1011.0 |
| 20260505053426 | 12 | 202 | 3.2 | 8.0 | 0.00 | 0.00 | 0.00 | 86 | 1011.0 |
| 20260505052926 | 12 | 214 | 1.6 | 3.2 | 0.00 | 0.00 | 0.00 | 85 | 1011.0 |
| 20260505052427 | 12 | 188 | 3.2 | 4.8 | 0.00 | 0.00 | 0.00 | 85 | 1011.0 |
| 20260505051928 | 12 | 184 | 3.2 | 6.4 | 0.00 | 0.00 | 0.00 | 84 | 1011.0 |
| 20260505051427 | 12 | 206 | 4.8 | 6.4 | 0.00 | 0.00 | 0.00 | 84 | 1011.0 |
| 20260505050927 | 12 | 208 | 1.6 | 3.2 | 0.00 | 0.00 | 0.00 | 84 | 1011.0 |
| 20260505050426 | 12 | 183 | 3.2 | 6.4 | 0.00 | 0.00 | 0.00 | 83 | 1011.0 |
| 20260505041426 | 14 | 200 | 3.2 | 6.4 | 0.00 | 0.00 | 0.00 | 78 | 1010.0 |
| 20260505040926 | 14 | 275 | 0.0 | 3.2 | 0.00 | 0.00 | 0.00 | 77 | 1010.0 |
| 20260505040426 | 15 | 211 | 4.8 | 8.0 | 0.00 | 0.00 | 0.00 | 77 | 1010.0 |
| 20260505035926 | 15 | 190 | 6.4 | 12.9 | 0.00 | 0.00 | 0.00 | 76 | 1010.0 |
| 20260505035428 | 15 | 210 | 6.4 | 9.7 | 0.00 | 0.00 | 0.00 | 76 | 1010.0 |
| 20260505034926 | 15 | 217 | 3.2 | 6.4 | 0.00 | 0.00 | 0.00 | 75 | 1010.0 |
| 20260505034426 | 15 | 187 | 3.2 | 6.4 | 0.00 | 0.00 | 0.00 | 74 | 1010.0 |
| 20260505033926 | 16 | 207 | 3.2 | 4.8 | 0.00 | 0.00 | 0.00 | 73 | 1010.0 |
| 20260505033426 | 16 | 216 | 3.2 | 6.4 | 0.00 | 0.00 | 0.00 | 72 | 1010.0 |
| 20260505032927 | 16 | 215 | 3.2 | 4.8 | 0.00 | 0.00 | 0.00 | 72 | 1010.0 |
| 20260505032427 | 16 | 193 | 4.8 | 8.0 | 0.00 | 0.00 | 0.00 | 70 | 1010.0 |
| 20260505031928 | 16 | 205 | 1.6 | 4.8 | 0.00 | 0.00 | 0.00 | 70 | 1010.0 |
| 20260505031427 | 17 | 210 | 4.8 | 9.7 | 0.00 | 0.00 | 0.00 | 69 | 1010.0 |
| 20260505030927 | 17 | 215 | 3.2 | 4.8 | 0.00 | 0.00 | 0.00 | 69 | 1010.0 |
| 20260505030426 | 17 | 185 | 1.6 | 4.8 | 0.00 | 0.00 | 0.00 | 68 | 1010.0 |
| 20260505025928 | 17 | 196 | 8.0 | 12.9 | 0.00 | 0.00 | 0.00 | 67 | 1010.0 |
| 20260505025426 | 18 | 174 | 4.8 | 6.4 | 0.00 | 0.00 | 0.00 | 67 | 1009.0 |
| 20260505024926 | 18 | 196 | 3.2 | 6.4 | 0.00 | 0.00 | 0.00 | 66 | 1009.0 |
| 20260505024427 | 18 | 188 | 6.4 | 9.7 | 0.00 | 0.00 | 0.00 | 65 | 1009.0 |
| 20260505023927 | 18 | 200 | 4.8 | 6.4 | 0.00 | 0.00 | 0.00 | 63 | 1009.0 |
| 20260505023426 | 19 | 214 | 1.6 | 4.8 | 0.00 | 0.00 | 0.00 | 63 | 1009.0 |
| 20260505022930 | 19 | 221 | 3.2 | 4.8 | 0.00 | 0.00 | 0.00 | 62 | 1009.0 |
| 20260505022426 | 20 | 213 | 4.8 | 6.4 | 0.00 | 0.00 | 0.00 | 61 | 1009.0 |
| 20260505021928 | 20 | 208 | 3.2 | 4.8 | 0.00 | 0.00 | 0.00 | 60 | 1009.0 |
| 20260505021428 | 20 | 210 | 3.2 | 3.2 | 0.00 | 0.00 | 0.00 | 60 | 1009.0 |
| 20260505020927 | 20 | 189 | 1.6 | 3.2 | 0.00 | 0.00 | 0.00 | 59 | 1009.0 |
| 20260505020426 | 21 | 207 | 3.2 | 6.4 | 0.00 | 0.00 | 0.00 | 58 | 1009.0 |
| 20260505015926 | 21 | 202 | 4.8 | 8.0 | 0.00 | 0.00 | 0.00 | 57 | 1009.0 |
| 20260505015426 | 21 | 198 | 6.4 | 11.3 | 0.00 | 0.00 | 0.00 | 56 | 1009.0 |
| 20260505014926 | 21 | 191 | 4.8 | 11.3 | 0.00 | 0.00 | 0.00 | 55 | 1009.0 |
| 20260505014426 | 21 | 187 | 4.8 | 6.4 | 0.00 | 0.00 | 0.00 | 54 | 1009.0 |
| 20260505013926 | 22 | 199 | 4.8 | 8.0 | 0.00 | 0.00 | 0.00 | 53 | 1009.0 |
| 20260505013426 | 22 | 200 | 3.2 | 6.4 | 0.00 | 0.00 | 0.00 | 54 | 1009.0 |
| 20260505012927 | 22 | 254 | 4.8 | 9.7 | 0.00 | 0.00 | 0.00 | 53 | 1009.0 |
| 20260505012426 | 22 | 194 | 4.8 | 6.4 | 0.00 | 0.00 | 0.00 | 52 | 1009.0 |
| 20260505011927 | 22 | 194 | 6.4 | 12.9 | 0.00 | 0.00 | 0.00 | 50 | 1009.0 |
| 20260505011428 | 23 | 209 | 4.8 | 8.0 | 0.00 | 0.00 | 0.00 | 50 | 1009.0 |
| 20260505010927 | 23 | 185 | 6.4 | 11.3 | 0.00 | 0.00 | 0.00 | 49 | 1009.0 |
| 20260505010428 | 23 | 192 | 6.4 | 11.3 | 0.00 | 0.00 | 0.00 | 48 | 1009.0 |
| 20260505005926 | 23 | 189 | 6.4 | 8.0 | 0.00 | 0.00 | 0.00 | 48 | 1009.0 |
| 20260505005426 | 23 | 204 | 3.2 | 6.4 | 0.00 | 0.00 | 0.00 | 49 | 1009.0 |
| 20260505004927 | 24 | 193 | 3.2 | 6.4 | 0.00 | 0.00 | 0.00 | 47 | 1009.0 |
| 20260505004426 | 24 | 192 | 1.6 | 4.8 | 0.00 | 0.00 | 0.00 | 47 | 1009.0 |
| 20260505003927 | 25 | 182 | 4.8 | 8.0 | 0.00 | 0.00 | 0.00 | 45 | 1009.0 |
| 20260505003426 | 25 | 206 | 3.2 | 4.8 | 0.00 | 0.00 | 0.00 | 45 | 1009.0 |
| 20260505002927 | 25 | 199 | 3.2 | 6.4 | 0.00 | 0.00 | 0.00 | 45 | 1009.0 |
| 20260505002426 | 25 | 206 | 3.2 | 4.8 | 0.00 | 0.00 | 0.00 | 43 | 1010.0 |
| 20260505001926 | 25 | 230 | 3.2 | 6.4 | 0.00 | 0.00 | 0.00 | 44 | 1010.0 |
| 20260505001428 | 25 | 319 | 1.6 | 3.2 | 0.00 | 0.00 | 0.00 | 44 | 1010.0 |
| 20260505000927 | 25 | 189 | 8.0 | 14.5 | 0.00 | 0.00 | 0.00 | 44 | 1010.0 |
| 20260505000428 | 25 | 190 | 8.0 | 9.7 | 0.00 | 0.00 | 0.00 | 43 | 1010.0 |
| 20260504235926 | 25 | 168 | 6.4 | 9.7 | 0.00 | 0.00 | 0.00 | 43 | 1010.0 |
| 20260504235427 | 25 | 176 | 3.2 | 6.4 | 0.00 | 0.00 | 0.00 | 43 | 1010.0 |
| 20260504234927 | 25 | 183 | 6.4 | 12.9 | 0.00 | 0.00 | 0.00 | 43 | 1009.0 |
| 20260504234426 | 25 | 177 | 6.4 | 9.7 | 0.00 | 0.00 | 0.00 | 44 | 1009.0 |
| 20260504233926 | 25 | 239 | 3.2 | 3.2 | 0.00 | 0.00 | 0.00 | 44 | 1010.0 |
| 20260504233426 | 25 | 185 | 8.0 | 11.3 | 0.00 | 0.00 | 0.00 | 45 | 1010.0 |
| 20260504232926 | 25 | 197 | 3.2 | 4.8 | 0.00 | 0.00 | 0.00 | 45 | 1010.0 |
| 20260504232428 | 25 | 200 | 6.4 | 14.5 | 0.00 | 0.00 | 0.00 | 44 | 1010.0 |
| 20260504231926 | 25 | 200 | 4.8 | 8.0 | 0.00 | 0.00 | 0.00 | 46 | 1010.0 |
| 20260504231428 | 25 | 175 | 9.7 | 12.9 | 0.00 | 0.00 | 0.00 | 44 | 1010.0 |
| 20260504230927 | 25 | 196 | 6.4 | 11.3 | 0.00 | 0.00 | 0.00 | 44 | 1010.0 |
| 20260504230426 | 25 | 162 | 8.0 | 11.3 | 0.00 | 0.00 | 0.00 | 46 | 1010.0 |
| 20260504225928 | 25 | 200 | 4.8 | 9.7 | 0.00 | 0.00 | 0.00 | 49 | 1010.0 |
| 20260504225427 | 25 | 231 | 3.2 | 6.4 | 0.00 | 0.00 | 0.00 | 45 | 1010.0 |
| 20260504224926 | 25 | 220 | 3.2 | 4.8 | 0.00 | 0.00 | 0.00 | 47 | 1010.0 |
| 20260504224426 | 25 | 247 | 3.2 | 4.8 | 0.00 | 0.00 | 0.00 | 44 | 1010.0 |
| 20260504223929 | 25 | 190 | 4.8 | 8.0 | 0.00 | 0.00 | 0.00 | 47 | 1010.0 |
| 20260504223426 | 25 | 179 | 6.4 | 14.5 | 0.00 | 0.00 | 0.00 | 47 | 1010.0 |
| 20260504222927 | 25 | 165 | 6.4 | 9.7 | 0.00 | 0.00 | 0.00 | 47 | 1010.0 |
| 20260504222428 | 25 | 178 | 9.7 | 12.9 | 0.00 | 0.00 | 0.00 | 45 | 1010.0 |
| 20260504221927 | 25 | 178 | 6.4 | 12.9 | 0.00 | 0.00 | 0.00 | 46 | 1010.0 |
| 20260504221427 | 25 | 169 | 11.3 | 16.1 | 0.00 | 0.00 | 0.00 | 45 | 1010.0 |
| 20260504220926 | 25 | 193 | 4.8 | 8.0 | 0.00 | 0.00 | 0.00 | 45 | 1010.0 |
| 20260504220426 | 25 | 304 | 3.2 | 8.0 | 0.00 | 0.00 | 0.00 | 47 | 1010.0 |
| 20260504215927 | 25 | 197 | 4.8 | 9.7 | 0.00 | 0.00 | 0.00 | 45 | 1011.0 |
| 20260504215426 | 25 | 310 | 3.2 | 3.2 | 0.00 | 0.00 | 0.00 | 49 | 1011.0 |
| 20260504214930 | 25 | 176 | 6.4 | 12.9 | 0.00 | 0.00 | 0.00 | 48 | 1011.0 |
| 20260504214427 | 25 | 173 | 3.2 | 6.4 | 0.00 | 0.00 | 0.00 | 49 | 1011.0 |
| 20260504213927 | 25 | 221 | 3.2 | 4.8 | 0.00 | 0.00 | 0.00 | 45 | 1011.0 |
| 20260504213426 | 25 | 172 | 9.7 | 14.5 | 0.00 | 0.00 | 0.00 | 46 | 1011.0 |
| 20260504212927 | 25 | 191 | 8.0 | 11.3 | 0.00 | 0.00 | 0.00 | 48 | 1011.0 |
| 20260504212429 | 24 | 156 | 8.0 | 12.9 | 0.00 | 0.00 | 0.00 | 48 | 1011.0 |
| 20260504211929 | 24 | 176 | 11.3 | 14.5 | 0.00 | 0.00 | 0.00 | 48 | 1011.0 |
| 20260504211428 | 24 | 185 | 11.3 | 14.5 | 0.00 | 0.00 | 0.00 | 48 | 1011.0 |
| 20260504210927 | 24 | 185 | 3.2 | 8.0 | 0.00 | 0.00 | 0.00 | 49 | 1011.0 |
| 20260504210428 | 24 | 167 | 6.4 | 8.0 | 0.00 | 0.00 | 0.00 | 49 | 1011.0 |
| 20260504205927 | 23 | 170 | 6.4 | 12.9 | 0.00 | 0.00 | 0.00 | 49 | 1011.0 |
| 20260504205427 | 23 | 151 | 6.4 | 9.7 | 0.00 | 0.00 | 0.00 | 50 | 1011.0 |
| 20260504204929 | 23 | 170 | 11.3 | 14.5 | 0.00 | 0.00 | 0.00 | 49 | 1011.0 |
| 20260504204427 | 23 | 180 | 8.0 | 11.3 | 0.00 | 0.00 | 0.00 | 51 | 1011.0 |
| 20260504203927 | 23 | 166 | 6.4 | 9.7 | 0.00 | 0.00 | 0.00 | 51 | 1011.0 |
| 20260504203426 | 23 | 179 | 8.0 | 11.3 | 0.00 | 0.00 | 0.00 | 51 | 1011.0 |
| 20260504202927 | 23 | 189 | 6.4 | 8.0 | 0.00 | 0.00 | 0.00 | 49 | 1011.0 |
| 20260504202426 | 23 | 234 | 3.2 | 4.8 | 0.00 | 0.00 | 0.00 | 49 | 1011.0 |
| 20260504201930 | 23 | 191 | 6.4 | 9.7 | 0.00 | 0.00 | 0.00 | 51 | 1011.0 |
| 20260504201428 | 23 | 179 | 6.4 | 11.3 | 0.00 | 0.00 | 0.00 | 49 | 1011.0 |
| 20260504200927 | 23 | 207 | 3.2 | 4.8 | 0.00 | 0.00 | 0.00 | 50 | 1011.0 |
| 20260504200430 | 23 | 217 | 6.4 | 9.7 | 0.00 | 0.00 | 0.00 | 51 | 1011.0 |
| 20260504195927 | 23 | 182 | 9.7 | 12.9 | 0.00 | 0.00 | 0.00 | 50 | 1011.0 |
| 20260504195427 | 23 | 215 | 6.4 | 9.7 | 0.00 | 0.00 | 0.00 | 53 | 1011.0 |
| 20260504194930 | 23 | 234 | 3.2 | 4.8 | 0.00 | 0.00 | 0.00 | 52 | 1011.0 |
| 20260504194430 | 23 | 178 | 8.0 | 11.3 | 0.00 | 0.00 | 0.00 | 53 | 1011.0 |
| 20260504193927 | 22 | 184 | 4.8 | 9.7 | 0.00 | 0.00 | 0.00 | 53 | 1011.0 |
| 20260504193430 | 22 | 167 | 4.8 | 9.7 | 0.00 | 0.00 | 0.00 | 53 | 1011.0 |
| 20260504192929 | 22 | 167 | 11.3 | 14.5 | 0.00 | 0.00 | 0.00 | 55 | 1011.0 |
| 20260504192428 | 22 | 211 | 6.4 | 8.0 | 0.00 | 0.00 | 0.00 | 56 | 1011.0 |
| 20260504191928 | 22 | 173 | 8.0 | 11.3 | 0.00 | 0.00 | 0.00 | 56 | 1011.0 |
| 20260504191427 | 22 | 168 | 9.7 | 14.5 | 0.00 | 0.00 | 0.00 | 54 | 1011.0 |
| 20260504190926 | 22 | 191 | 11.3 | 14.5 | 0.00 | 0.00 | 0.00 | 53 | 1011.0 |
| 20260504190427 | 22 | 192 | 6.4 | 9.7 | 0.00 | 0.00 | 0.00 | 54 | 1011.0 |
| 20260504185929 | 22 | 201 | 6.4 | 12.9 | 0.00 | 0.00 | 0.00 | 56 | 1011.0 |
| 20260504185430 | 22 | 198 | 8.0 | 12.9 | 0.00 | 0.00 | 0.00 | 56 | 1011.0 |
| 20260504184927 | 22 | 227 | 6.4 | 12.9 | 0.00 | 0.00 | 0.00 | 53 | 1011.0 |
| 20260504184429 | 22 | 174 | 4.8 | 8.0 | 0.00 | 0.00 | 0.00 | 58 | 1011.0 |
| 20260504183927 | 22 | 188 | 9.7 | 14.5 | 0.00 | 0.00 | 0.00 | 54 | 1011.0 |
| 20260504183432 | 22 | 290 | 3.2 | 6.4 | 0.00 | 0.00 | 0.00 | 54 | 1011.0 |
| 20260504182930 | 22 | 218 | 4.8 | 8.0 | 0.00 | 0.00 | 0.00 | 56 | 1011.0 |
| 20260504182429 | 22 | 175 | 9.7 | 14.5 | 0.00 | 0.00 | 0.00 | 55 | 1011.0 |
| 20260504181927 | 21 | 173 | 6.4 | 9.7 | 0.00 | 0.00 | 0.00 | 55 | 1011.0 |
| 20260504181430 | 21 | 178 | 9.7 | 14.5 | 0.00 | 0.00 | 0.00 | 55 | 1011.0 |
| 20260504180931 | 21 | 177 | 4.8 | 11.3 | 0.00 | 0.00 | 0.00 | 59 | 1012.0 |
| 20260504180428 | 21 | 162 | 8.0 | 12.9 | 0.00 | 0.00 | 0.00 | 55 | 1012.0 |
| 20260504175929 | 21 | 199 | 9.7 | 14.5 | 0.00 | 0.00 | 0.00 | 55 | 1011.0 |
| 20260504175430 | 21 | 153 | 9.7 | 14.5 | 0.00 | 0.00 | 0.00 | 56 | 1011.0 |
| 20260504174929 | 21 | 167 | 8.0 | 12.9 | 0.00 | 0.00 | 0.00 | 58 | 1012.0 |
| 20260504174431 | 21 | 153 | 9.7 | 14.5 | 0.00 | 0.00 | 0.00 | 57 | 1011.0 |
| 20260504173930 | 21 | 185 | 6.4 | 11.3 | 0.00 | 0.00 | 0.00 | 57 | 1011.0 |
| 20260504173428 | 21 | 163 | 4.8 | 8.0 | 0.00 | 0.00 | 0.00 | 58 | 1011.0 |
| 20260504172927 | 21 | 178 | 9.7 | 14.5 | 0.00 | 0.00 | 0.00 | 57 | 1011.0 |
| 20260504172428 | 20 | 188 | 6.4 | 9.7 | 0.00 | 0.00 | 0.00 | 57 | 1011.0 |
| 20260504171929 | 20 | 160 | 8.0 | 12.9 | 0.00 | 0.00 | 0.00 | 58 | 1011.0 |
| 20260504171427 | 20 | 174 | 8.0 | 11.3 | 0.00 | 0.00 | 0.00 | 58 | 1011.0 |
| 20260504170932 | 20 | 185 | 8.0 | 11.3 | 0.00 | 0.00 | 0.00 | 58 | 1011.0 |
| 20260504170429 | 20 | 193 | 6.4 | 9.7 | 0.00 | 0.00 | 0.00 | 59 | 1011.0 |
| 20260504160432 | 18 | 165 | 6.4 | 9.7 | 0.00 | 0.00 | 0.00 | 62 | 1011.0 |
| 20260504150929 | 13 | 177 | 0.0 | 1.6 | 0.00 | 0.00 | 0.00 | 85 | 1011.0 |
| 20260504150431 | 12 | 162 | 0.0 | 1.6 | 0.00 | 0.00 | 0.00 | 90 | 1011.0 |
| 20260504140929 | 7 | 81 | 0.0 | 0.0 | 0.00 | 0.00 | 0.00 | 97 | 1010.0 |
| 20260504140427 | 7 | 87 | 0.0 | 1.6 | 0.00 | 0.00 | 0.00 | 97 | 1010.0 |
| 20260504130427 | 6 | 46 | 0.0 | 1.6 | 0.00 | 0.00 | 0.00 | 96 | 1009.0 |
| 20260504110430 | 6 | 65 | 0.0 | 1.6 | 0.00 | 0.00 | 0.00 | 95 | 1009.0 |
| 20260504100427 | 7 | 350 | 0.0 | 3.2 | 0.00 | 0.00 | 0.00 | 95 | 1009.0 |
| 20260504081926 | 8 | 33 | 0.0 | 1.6 | 0.00 | 0.00 | 0.00 | 92 | 1009.0 |
| 20260504081426 | 8 | 333 | 1.6 | 1.6 | 0.00 | 0.00 | 0.00 | 92 | 1009.0 |
| 20260504080927 | 8 | 70 | 0.0 | 1.6 | 0.00 | 0.00 | 0.00 | 92 | 1009.0 |
| 20260504080427 | 8 | 317 | 0.0 | 1.6 | 0.00 | 0.00 | 0.00 | 92 | 1009.0 |